ASA23 KLAX-KSLC

Flight info

Callsign ASA23
Flight time 1h 24m
Altitude 35000
Route ORCKA5 LAS Q70 BLIPP Q842 WINEN MLF QWENN6
Aircraft B738/M-SDE2E3FGHIRWXY/LB1

Departure

Time 2026-04-23 01:44
Airport Los Angeles International Airport (KLAX)

Arrival

Time 2026-04-23 03:08
Airport Salt Lake City International Airport (KSLC)
Time Latitude Longitude Altitude Speed Heading
2026-04-23 00:42 33.94613 -118.40325 125 ft 0 kts 249°
2026-04-23 01:33 33.94618 -118.40307 119 ft 4 kts 249°
2026-04-23 01:33 33.94626 -118.40280 120 ft 1 kts 249°
2026-04-23 01:33 33.94627 -118.40279 120 ft 0 kts 249°
2026-04-23 01:34 33.94631 -118.40265 121 ft 2 kts 255°
2026-04-23 01:35 33.94633 -118.40246 123 ft 2 kts 310°
2026-04-23 01:35 33.94621 -118.40238 121 ft 1 kts 346°
2026-04-23 01:35 33.94619 -118.40237 121 ft 0 kts 346°
2026-04-23 01:40 33.94621 -118.40238 125 ft 2 kts 346°
2026-04-23 01:41 33.94685 -118.40251 122 ft 16 kts 351°
2026-04-23 01:41 33.94773 -118.40266 123 ft 4 kts 352°
2026-04-23 01:41 33.94836 -118.40285 121 ft 12 kts 345°
2026-04-23 01:41 33.94907 -118.40198 122 ft 20 kts 82°
2026-04-23 01:42 33.94920 -118.40078 123 ft 9 kts 83°
2026-04-23 01:42 33.94929 -118.39990 124 ft 6 kts 82°
2026-04-23 01:42 33.94935 -118.39959 123 ft 4 kts 70°
2026-04-23 01:42 33.94987 -118.39921 120 ft 15 kts
2026-04-23 01:43 33.95036 -118.40002 123 ft 10 kts 263°
2026-04-23 01:43 33.95019 -118.40168 120 ft 43 kts 263°
2026-04-23 01:43 33.94954 -118.40799 122 ft 106 kts 263°
2026-04-23 01:43 33.94843 -118.41891 126 ft 155 kts 263°
2026-04-23 01:44 33.94702 -118.43269 593 ft 164 kts 263°
2026-04-23 01:44 33.94579 -118.44576 1467 ft 157 kts 264°
2026-04-23 01:44 33.94451 -118.45901 2101 ft 168 kts 265°
2026-04-23 01:44 33.94184 -118.47395 2325 ft 200 kts 246°
2026-04-23 01:45 33.93152 -118.48651 2533 ft 226 kts 211°
2026-04-23 01:45 33.91565 -118.49058 2909 ft 244 kts 178°
2026-04-23 01:45 33.89902 -118.48361 3146 ft 268 kts 144°
2026-04-23 01:45 33.88659 -118.46671 3783 ft 273 kts 127°
2026-04-23 01:46 33.87249 -118.45148 4568 ft 276 kts 153°
2026-04-23 01:46 33.85411 -118.44577 5396 ft 275 kts 181°
2026-04-23 01:46 33.83526 -118.44982 6141 ft 278 kts 199°
2026-04-23 01:46 33.81662 -118.45711 6781 ft 285 kts 201°
2026-04-23 01:47 33.79810 -118.46450 7523 ft 285 kts 201°
2026-04-23 01:47 33.77942 -118.47187 7902 ft 281 kts 201°
2026-04-23 01:47 33.76073 -118.47912 8561 ft 285 kts 202°
2026-04-23 01:47 33.74177 -118.48640 9302 ft 287 kts 202°
2026-04-23 01:48 33.72262 -118.49346 10098 ft 289 kts 202°
2026-04-23 01:48 33.70331 -118.50032 10809 ft 290 kts 202°
2026-04-23 01:48 33.68360 -118.50773 11110 ft 307 kts 208°
2026-04-23 01:48 33.66515 -118.52117 11281 ft 315 kts 230°
2026-04-23 01:49 33.65313 -118.54271 11855 ft 310 kts 253°
2026-04-23 01:49 33.64981 -118.56786 12578 ft 306 kts 275°
2026-04-23 01:49 33.65492 -118.59203 12912 ft 304 kts 296°
2026-04-23 01:49 33.66798 -118.61204 12983 ft 313 kts 317°
2026-04-23 01:50 33.68736 -118.62427 13023 ft 321 kts 339°
2026-04-23 01:50 33.70990 -118.62628 13042 ft 333 kts
2026-04-23 01:50 33.73273 -118.61989 13023 ft 340 kts 10°
2026-04-23 01:50 33.75450 -118.60801 12967 ft 355 kts 31°
2026-04-23 01:51 33.77270 -118.58773 13034 ft 359 kts 40°
2026-04-23 01:51 33.79018 -118.56604 13018 ft 360 kts 39°
2026-04-23 01:51 33.80870 -118.54596 12990 ft 358 kts 33°
2026-04-23 01:51 33.82835 -118.52766 13010 ft 356 kts 31°
2026-04-23 01:52 33.84812 -118.51031 12996 ft 357 kts 30°
2026-04-23 01:52 33.86824 -118.49283 12998 ft 357 kts 30°
2026-04-23 01:52 33.88832 -118.47523 13003 ft 357 kts 30°
2026-04-23 01:52 33.90836 -118.45754 13000 ft 357 kts 30°
2026-04-23 01:53 33.92803 -118.43908 12990 ft 361 kts 35°
2026-04-23 01:53 33.94587 -118.41765 12983 ft 367 kts 46°
2026-04-23 01:53 33.95942 -118.39137 13053 ft 370 kts 58°
2026-04-23 01:53 33.97142 -118.36414 12992 ft 371 kts 56°
2026-04-23 01:54 33.98526 -118.33786 13022 ft 368 kts 50°
2026-04-23 01:54 34.00006 -118.31282 13400 ft 374 kts 50°
2026-04-23 01:54 34.01520 -118.28729 14167 ft 375 kts 50°
2026-04-23 01:54 34.03018 -118.26143 14864 ft 379 kts 50°
2026-04-23 01:55 34.04523 -118.23501 15476 ft 385 kts 51°
2026-04-23 01:55 34.06042 -118.20816 16108 ft 390 kts 51°
2026-04-23 01:55 34.07574 -118.18098 16751 ft 394 kts 51°
2026-04-23 01:55 34.09125 -118.15350 17375 ft 399 kts 51°
2026-04-23 01:56 34.10698 -118.12566 18001 ft 404 kts 51°
2026-04-23 01:56 34.12288 -118.09750 18592 ft 408 kts 51°
2026-04-23 01:56 34.13895 -118.06904 19144 ft 413 kts 51°
2026-04-23 01:56 34.15520 -118.04024 19684 ft 417 kts 51°
2026-04-23 01:57 34.17160 -118.01114 20218 ft 421 kts 51°
2026-04-23 01:57 34.18794 -117.98209 20736 ft 426 kts 51°
2026-04-23 01:57 34.20464 -117.95239 21250 ft 430 kts 51°
2026-04-23 01:57 34.22153 -117.92234 21675 ft 436 kts 51°
2026-04-23 01:58 34.23868 -117.89180 22110 ft 442 kts 51°
2026-04-23 01:58 34.25592 -117.86102 22689 ft 442 kts 51°
2026-04-23 01:58 34.27322 -117.83011 23185 ft 446 kts 51°
2026-04-23 01:58 34.29073 -117.79883 23591 ft 452 kts 51°
2026-04-23 01:59 34.30842 -117.76719 24006 ft 456 kts 51°
2026-04-23 01:59 34.32622 -117.73532 24445 ft 458 kts 51°
2026-04-23 01:59 34.34407 -117.70336 24859 ft 460 kts 51°
2026-04-23 01:59 34.36186 -117.67180 25309 ft 462 kts 50°
2026-04-23 02:00 34.38053 -117.64007 25701 ft 464 kts 49°
2026-04-23 02:00 34.39961 -117.60839 26062 ft 467 kts 48°
2026-04-23 02:00 34.41891 -117.57659 26444 ft 470 kts 48°
2026-04-23 02:00 34.43829 -117.54456 26879 ft 472 kts 49°
2026-04-23 02:01 34.45773 -117.51226 27277 ft 476 kts 48°
2026-04-23 02:01 34.47726 -117.47962 27601 ft 481 kts 49°
2026-04-23 02:01 34.49690 -117.44668 27962 ft 484 kts 49°
2026-04-23 02:01 34.51663 -117.41348 28332 ft 487 kts 49°
2026-04-23 02:02 34.53643 -117.38008 28708 ft 489 kts 49°
2026-04-23 02:02 34.55606 -117.34694 29063 ft 491 kts 49°
2026-04-23 02:02 34.57604 -117.31319 29395 ft 495 kts 49°
2026-04-23 02:02 34.59618 -117.27915 29714 ft 497 kts 49°
2026-04-23 02:03 34.61636 -117.24501 30063 ft 500 kts 49°
2026-04-23 02:03 34.63667 -117.21063 30342 ft 502 kts 49°
2026-04-23 02:03 34.65707 -117.17605 30550 ft 504 kts 49°
2026-04-23 02:03 34.67752 -117.14137 30823 ft 506 kts 50°
2026-04-23 02:04 34.69802 -117.10657 31152 ft 506 kts 49°
2026-04-23 02:04 34.71848 -117.07176 31550 ft 505 kts 49°
2026-04-23 02:04 34.73886 -117.03707 31954 ft 503 kts 49°
2026-04-23 02:04 34.75918 -117.00245 32291 ft 504 kts 49°
2026-04-23 02:05 34.77954 -116.96776 32594 ft 504 kts 49°
2026-04-23 02:05 34.79992 -116.93299 32927 ft 504 kts 49°
2026-04-23 02:05 34.82027 -116.89823 33300 ft 503 kts 49°
2026-04-23 02:05 34.84024 -116.86408 33703 ft 502 kts 49°
2026-04-23 02:06 34.86053 -116.82936 33974 ft 503 kts 49°
2026-04-23 02:06 34.88085 -116.79458 34186 ft 505 kts 49°
2026-04-23 02:06 34.90122 -116.75967 34418 ft 506 kts 49°
2026-04-23 02:06 34.92170 -116.72491 34691 ft 504 kts 47°
2026-04-23 02:07 34.94370 -116.69195 34930 ft 500 kts 41°
2026-04-23 02:07 34.96716 -116.66071 35028 ft 501 kts 39°
2026-04-23 02:07 35.01580 -116.59951 35000 ft 501 kts 39°
2026-04-23 02:08 35.06377 -116.53820 34991 ft 497 kts 39°
2026-04-23 02:08 35.11062 -116.47669 34958 ft 499 kts 40°
2026-04-23 02:09 35.15762 -116.41431 34980 ft 499 kts 40°
2026-04-23 02:09 35.20469 -116.35174 34976 ft 501 kts 40°
2026-04-23 02:10 35.25189 -116.28899 34983 ft 501 kts 40°
2026-04-23 02:10 35.29912 -116.22610 34966 ft 502 kts 40°
2026-04-23 02:11 35.34597 -116.16359 34992 ft 501 kts 40°
2026-04-23 02:11 35.39317 -116.10052 34982 ft 502 kts 40°
2026-04-23 02:12 35.44045 -116.03723 34965 ft 503 kts 40°
2026-04-23 02:12 35.48768 -115.97386 34968 ft 504 kts 40°
2026-04-23 02:13 35.53495 -115.91033 34973 ft 504 kts 40°
2026-04-23 02:13 35.58179 -115.84723 34976 ft 503 kts 40°
2026-04-23 02:14 35.62894 -115.78364 34969 ft 503 kts 40°
2026-04-23 02:14 35.67571 -115.71989 34993 ft 502 kts 41°
2026-04-23 02:15 35.74546 -115.62377 34968 ft 501 kts 41°
2026-04-23 02:16 35.79176 -115.55992 34999 ft 499 kts 41°
2026-04-23 02:16 35.83806 -115.49601 35024 ft 500 kts 41°
2026-04-23 02:17 35.88408 -115.43237 34991 ft 501 kts 41°
2026-04-23 02:17 35.93039 -115.36820 34980 ft 501 kts 41°
2026-04-23 02:18 35.97669 -115.30393 34984 ft 502 kts 41°
2026-04-23 02:18 36.02309 -115.23936 34952 ft 502 kts 41°
2026-04-23 02:19 36.06948 -115.17473 34940 ft 503 kts 41°
2026-04-23 02:19 36.11816 -115.11442 34921 ft 495 kts 32°
2026-04-23 02:20 36.17083 -115.06010 34886 ft 494 kts 30°
2026-04-23 02:20 36.22367 -115.00537 34892 ft 496 kts 32°
2026-04-23 02:21 36.27603 -114.94912 34864 ft 499 kts 32°
2026-04-23 02:21 36.32827 -114.89230 34849 ft 500 kts 32°
2026-04-23 02:22 36.38061 -114.83545 34846 ft 500 kts 32°
2026-04-23 02:22 36.42417 -114.78815 34845 ft 500 kts 32°
2026-04-23 02:23 36.48490 -114.72195 34824 ft 501 kts 32°
2026-04-23 02:23 36.52870 -114.67407 34845 ft 500 kts 32°
2026-04-23 02:24 36.58053 -114.61732 34827 ft 500 kts 32°
2026-04-23 02:24 36.63261 -114.56019 34824 ft 499 kts 33°
2026-04-23 02:25 36.68463 -114.50303 34842 ft 498 kts 33°
2026-04-23 02:25 36.73813 -114.44944 34810 ft 485 kts 21°
2026-04-23 02:26 36.79621 -114.40884 34854 ft 478 kts 18°
2026-04-23 02:26 36.85412 -114.36667 34872 ft 487 kts 23°
2026-04-23 02:27 36.91040 -114.31996 34880 ft 490 kts 24°
2026-04-23 02:27 36.96745 -114.27304 34852 ft 491 kts 23°
2026-04-23 02:28 37.02506 -114.22707 34910 ft 491 kts 22°
2026-04-23 02:28 37.08306 -114.18137 34871 ft 493 kts 22°
2026-04-23 02:29 37.14109 -114.13557 34864 ft 494 kts 22°
2026-04-23 02:29 37.19915 -114.08955 34880 ft 493 kts 22°
2026-04-23 02:30 37.25672 -114.04379 34884 ft 493 kts 22°
2026-04-23 02:30 37.31465 -113.99767 34894 ft 494 kts 22°
2026-04-23 02:31 37.37260 -113.95145 34899 ft 493 kts 22°
2026-04-23 02:31 37.43043 -113.90523 34905 ft 492 kts 22°
2026-04-23 02:32 37.48815 -113.85902 34907 ft 491 kts 22°
2026-04-23 02:32 37.54571 -113.81287 34940 ft 490 kts 22°
2026-04-23 02:33 37.60322 -113.76667 34924 ft 489 kts 22°
2026-04-23 02:33 37.66050 -113.72056 34895 ft 489 kts 22°
2026-04-23 02:34 37.71733 -113.67473 34905 ft 488 kts 22°
2026-04-23 02:34 37.77453 -113.62852 34915 ft 487 kts 22°
2026-04-23 02:35 37.83167 -113.58228 34932 ft 488 kts 23°
2026-04-23 02:35 37.88892 -113.53585 34916 ft 489 kts 23°
2026-04-23 02:36 37.94574 -113.48815 34879 ft 496 kts 30°
2026-04-23 02:36 37.99636 -113.42729 34975 ft 504 kts 38°
2026-04-23 02:37 38.04625 -113.36600 34912 ft 500 kts 33°
2026-04-23 02:37 38.09925 -113.30919 34934 ft 499 kts 32°
2026-04-23 02:38 38.15191 -113.25158 34929 ft 500 kts 34°
2026-04-23 02:38 38.20371 -113.19257 34952 ft 501 kts 35°
2026-04-23 02:39 38.25499 -113.13357 34961 ft 500 kts 35°
2026-04-23 02:39 38.30662 -113.07432 35001 ft 499 kts 34°
2026-04-23 02:40 38.35912 -113.01691 34964 ft 493 kts 26°
2026-04-23 02:40 38.38844 -112.99599 34951 ft 474 kts 11°
2026-04-23 02:40 38.41904 -112.98189 35093 ft 464 kts
2026-04-23 02:41 38.47982 -112.95346 35002 ft 474 kts 13°
2026-04-23 02:41 38.53954 -112.91921 34913 ft 462 kts 14°
2026-04-23 02:41 38.56869 -112.90249 34534 ft 457 kts 13°
2026-04-23 02:42 38.59773 -112.88635 34227 ft 452 kts 12°
2026-04-23 02:42 38.62659 -112.87072 33838 ft 450 kts 12°
2026-04-23 02:42 38.65549 -112.85532 33358 ft 449 kts 12°
2026-04-23 02:42 38.68422 -112.84004 32981 ft 446 kts 12°
2026-04-23 02:43 38.71280 -112.82481 32564 ft 444 kts 12°
2026-04-23 02:43 38.74081 -112.80983 32194 ft 441 kts 12°
2026-04-23 02:43 38.76904 -112.79469 31823 ft 439 kts 12°
2026-04-23 02:43 38.79714 -112.77960 31454 ft 436 kts 12°
2026-04-23 02:44 38.82506 -112.76459 31054 ft 435 kts 12°
2026-04-23 02:44 38.85297 -112.74958 30698 ft 434 kts 12°
2026-04-23 02:44 38.88085 -112.73456 30220 ft 436 kts 12°
2026-04-23 02:44 38.90886 -112.71945 29795 ft 435 kts 12°
2026-04-23 02:45 38.93659 -112.70442 29438 ft 431 kts 12°
2026-04-23 02:45 38.96417 -112.68948 28966 ft 430 kts 12°
2026-04-23 02:45 38.99125 -112.67480 28589 ft 427 kts 12°
2026-04-23 02:45 39.01853 -112.66000 28201 ft 424 kts 12°
2026-04-23 02:46 39.04563 -112.64530 27802 ft 422 kts 12°
2026-04-23 02:46 39.07258 -112.63068 27416 ft 419 kts 12°
2026-04-23 02:46 39.09940 -112.61612 27052 ft 418 kts 12°
2026-04-23 02:46 39.12622 -112.60156 26585 ft 418 kts 12°
2026-04-23 02:47 39.15296 -112.58703 26214 ft 416 kts 13°
2026-04-23 02:47 39.17960 -112.57252 25799 ft 415 kts 13°
2026-04-23 02:47 39.20589 -112.55820 25381 ft 415 kts 13°
2026-04-23 02:47 39.23237 -112.54374 25038 ft 412 kts 13°
2026-04-23 02:48 39.25882 -112.52931 24586 ft 413 kts 13°
2026-04-23 02:48 39.28520 -112.51490 24232 ft 411 kts 13°
2026-04-23 02:48 39.31149 -112.50047 23844 ft 410 kts 14°
2026-04-23 02:48 39.33724 -112.48584 23896 ft 397 kts 14°
2026-04-23 02:49 39.36218 -112.47139 23771 ft 389 kts 14°
2026-04-23 02:49 39.38681 -112.45715 23449 ft 387 kts 14°
2026-04-23 02:49 39.41111 -112.44317 23037 ft 387 kts 14°
2026-04-23 02:49 39.43565 -112.42907 22673 ft 385 kts 14°
2026-04-23 02:50 39.45998 -112.41508 22377 ft 381 kts 14°
2026-04-23 02:50 39.48408 -112.40121 22062 ft 377 kts 15°
2026-04-23 02:50 39.50799 -112.38746 21704 ft 375 kts 15°
2026-04-23 02:50 39.53183 -112.37374 21361 ft 373 kts 15°
2026-04-23 02:51 39.55547 -112.36012 21058 ft 370 kts 16°
2026-04-23 02:51 39.57888 -112.34662 20835 ft 366 kts 17°
2026-04-23 02:51 39.60149 -112.33353 20745 ft 356 kts 17°
2026-04-23 02:51 39.62402 -112.32051 20403 ft 355 kts 17°
2026-04-23 02:52 39.64671 -112.30744 19960 ft 358 kts 17°
2026-04-23 02:52 39.66935 -112.29436 19692 ft 354 kts 18°
2026-04-23 02:52 39.69172 -112.28140 19460 ft 350 kts 18°
2026-04-23 02:52 39.71390 -112.26855 19136 ft 349 kts 18°
2026-04-23 02:53 39.73608 -112.25570 18810 ft 348 kts 18°
2026-04-23 02:53 39.75810 -112.24293 18518 ft 345 kts 18°
2026-04-23 02:53 39.77994 -112.23026 18229 ft 343 kts 19°
2026-04-23 02:53 39.80167 -112.21764 17911 ft 341 kts 19°
2026-04-23 02:54 39.82288 -112.20530 17722 ft 333 kts 19°
2026-04-23 02:54 39.84342 -112.19329 17752 ft 316 kts 19°
2026-04-23 02:54 39.86332 -112.18169 17382 ft 315 kts 19°
2026-04-23 02:54 39.88381 -112.16984 16662 ft 328 kts 19°
2026-04-23 02:55 39.90467 -112.15773 16332 ft 327 kts 19°
2026-04-23 02:55 39.92531 -112.14568 16110 ft 323 kts 19°
2026-04-23 02:55 39.94544 -112.13389 16094 ft 309 kts 19°
2026-04-23 02:55 39.96455 -112.12267 15982 ft 294 kts 19°
2026-04-23 02:56 39.98287 -112.11266 15882 ft 277 kts 14°
2026-04-23 02:56 40.00045 -112.10491 15763 ft 264 kts 11°
2026-04-23 02:56 40.01768 -112.09837 15623 ft 253 kts
2026-04-23 02:56 40.03489 -112.09209 15051 ft 266 kts
2026-04-23 02:57 40.05371 -112.08525 14009 ft 297 kts 11°
2026-04-23 02:57 40.07404 -112.07763 13458 ft 306 kts 12°
2026-04-23 02:57 40.09432 -112.06976 13216 ft 302 kts 12°
2026-04-23 02:57 40.11429 -112.06187 13033 ft 297 kts 12°
2026-04-23 02:58 40.13379 -112.05410 12932 ft 287 kts 12°
2026-04-23 02:58 40.15238 -112.04664 12863 ft 272 kts 12°
2026-04-23 02:58 40.17007 -112.03954 12734 ft 261 kts 12°
2026-04-23 02:58 40.18726 -112.03268 12557 ft 265 kts 12°
2026-04-23 02:59 40.20567 -112.02541 12529 ft 288 kts 12°
2026-04-23 02:59 40.22522 -112.01766 12283 ft 296 kts 13°
2026-04-23 02:59 40.24476 -112.00982 12241 ft 291 kts 13°
2026-04-23 02:59 40.26415 -112.00201 12080 ft 293 kts 13°
2026-04-23 03:00 40.28372 -111.99415 11791 ft 298 kts 13°
2026-04-23 03:00 40.30361 -111.98616 11622 ft 296 kts 13°
2026-04-23 03:00 40.32319 -111.97827 11464 ft 293 kts 13°
2026-04-23 03:00 40.34257 -111.97046 11313 ft 289 kts 13°
2026-04-23 03:01 40.36156 -111.96281 11169 ft 282 kts 13°
2026-04-23 03:01 40.37986 -111.95544 11037 ft 276 kts 13°
2026-04-23 03:01 40.39800 -111.94825 10994 ft 267 kts 11°
2026-04-23 03:01 40.41559 -111.94170 11019 ft 260 kts 11°
2026-04-23 03:02 40.43312 -111.93540 11003 ft 263 kts
2026-04-23 03:02 40.45148 -111.93363 10671 ft 271 kts 350°
2026-04-23 03:02 40.47017 -111.93712 10396 ft 270 kts 347°
2026-04-23 03:02 40.48899 -111.94073 9932 ft 278 kts 349°
2026-04-23 03:03 40.50828 -111.94303 9587 ft 278 kts 351°
2026-04-23 03:03 40.52767 -111.94501 9154 ft 281 kts 351°
2026-04-23 03:03 40.54722 -111.94683 8787 ft 282 kts 351°
2026-04-23 03:03 40.56627 -111.94881 8385 ft 273 kts 352°
2026-04-23 03:04 40.58456 -111.95089 8070 ft 253 kts 350°
2026-04-23 03:04 40.60156 -111.95288 7713 ft 238 kts 351°
2026-04-23 03:04 40.61750 -111.95475 7416 ft 223 kts 349°
2026-04-23 03:04 40.63260 -111.95655 7129 ft 216 kts 352°
2026-04-23 03:05 40.64759 -111.95834 6810 ft 215 kts 354°
2026-04-23 03:05 40.66231 -111.96006 6535 ft 210 kts 354°
2026-04-23 03:05 40.67678 -111.96172 6251 ft 204 kts 354°
2026-04-23 03:05 40.69042 -111.96329 5991 ft 189 kts 353°
2026-04-23 03:06 40.70279 -111.96472 5792 ft 168 kts 352°
2026-04-23 03:06 40.71400 -111.96602 5515 ft 155 kts 349°
2026-04-23 03:06 40.72465 -111.96728 5291 ft 158 kts 347°
2026-04-23 03:06 40.73551 -111.96856 5082 ft 162 kts 348°
2026-04-23 03:07 40.74683 -111.96991 4845 ft 163 kts 356°
2026-04-23 03:07 40.75810 -111.97120 4620 ft 163 kts 356°
2026-04-23 03:07 40.76939 -111.97251 4393 ft 161 kts 355°
2026-04-23 03:07 40.78035 -111.97377 4264 ft 148 kts 356°
2026-04-23 03:08 40.78835 -111.97447 4232 ft 72 kts 358°
2026-04-23 03:08 40.79233 -111.97505 4230 ft 28 kts 353°
2026-04-23 03:08 40.79390 -111.97560 4227 ft 5 kts 340°
2026-04-23 03:08 40.79427 -111.97578 4226 ft 7 kts 338°
2026-04-23 03:09 40.79489 -111.97617 4227 ft 10 kts 329°
2026-04-23 03:09 40.79517 -111.97640 4226 ft 9 kts 323°
2026-04-23 03:09 40.79542 -111.97732 4224 ft 13 kts 242°
2026-04-23 03:09 40.79443 -111.97757 4229 ft 17 kts 172°
2026-04-23 03:10 40.79337 -111.97748 4228 ft 14 kts 173°
2026-04-23 03:10 40.79217 -111.97738 4228 ft 20 kts 169°
2026-04-23 03:10 40.79074 -111.97720 4232 ft 19 kts 171°
2026-04-23 03:10 40.78936 -111.97704 4234 ft 17 kts 178°
2026-04-23 03:11 40.78842 -111.97706 4232 ft 14 kts 212°
2026-04-23 03:11 40.78822 -111.97847 4233 ft 19 kts 267°
2026-04-23 03:11 40.78815 -111.97916 4233 ft 5 kts 258°
2026-04-23 03:11 40.78809 -111.97959 4233 ft 5 kts 255°
2026-04-23 03:12 40.78767 -111.98003 4232 ft 0 kts 195°
2026-04-23 03:12 40.78732 -111.98008 4231 ft 6 kts 179°
2026-04-23 03:12 40.78700 -111.98005 4231 ft 4 kts 175°
2026-04-23 03:12 40.78683 -111.98003 4231 ft 3 kts 174°
2026-04-23 03:13 40.78677 -111.98002 4231 ft 0 kts 174°